カタログに戻る

STARLINK-34349

運用中通信VLEO
NORAD 64215·PAYLOAD·🇺🇸 United States

打ち上げ May 31, 2025 から Vandenberg Space Force Base

Loading…

次のパス (今後24時間)

TLE

最新Source: CelesTrak SupGP

元期: Sep 15, 2026, 04:01 UTC

1 64215C 25117N   26258.16784722 -.00047273  00000+0 -13968-2 0  2585
2 64215  53.1578 236.3699 0001573  86.4670 132.9532 15.34412073    10

AllMySatでSTARLINK-34349をリアルタイム追跡

Download on the App Store